Wetbulb
33.59 32.87 32.26 31.95 31.62 31.56 31.64 31.25 31.09 31.13 31.08 31.03 31.25 31.47 31.50 31.75 32.47 32.64 33.47 33.77 33.32 33.45 34.00 33.69 33.02 34.16 34.33 34.85 35.45 35.45 34.59 34.17 30.65 32.49 35.14 35.65 33.98 34.18 34.96 35.91 36.74 36.10 36.18
33.26 32.66 32.33 31.94 31.36 31.16 31.01 30.67 30.84 30.31 30.48 30.34 30.58 31.06 30.89 30.97 31.65 32.20 32.79 33.47 32.86 32.26 31.33 31.30 31.85 34.04 34.41 35.11 35.08 34.53 34.41 34.78 32.63 30.31 32.76 33.63 33.78 34.39 33.47 33.27 34.45 35.13 35.24
32.58 32.32 31.68 31.21 30.74 29.22 28.54 28.48 29.34 27.31 26.76 27.69 30.39 30.25 29.02 28.33 29.19 32.08 33.08 33.15 32.79 30.98 30.84 31.08 31.93 32.95 32.84 33.74 34.14 33.71 34.06 34.29 33.58 31.54 31.41 33.38 34.42 34.43 33.93 34.42 33.94 34.86 34.22
32.31 31.95 31.02 30.58 29.96 27.99 26.11 24.38 23.88 24.22 25.35 25.65 26.78 26.18 25.16 25.27 29.70 32.29 32.97 33.34 30.92 30.27 30.37 31.18 31.99 31.93 31.75 32.00 32.40 32.58 32.91 32.39 32.49 31.92 31.97 31.60 33.56 34.32 33.78 32.54 32.46 34.31 32.36
31.52 31.01 30.35 29.98 28.34 25.33 23.05 21.21 22.24 27.80 25.78 22.80 22.16 22.21 23.15 25.95 30.57 33.03 33.53 30.80 28.77 28.28 28.05 30.15 31.37 31.54 32.03 32.85 32.67 32.78 32.94 32.24 31.87 31.47 31.13 31.75 31.88 32.75 31.76 32.90 32.05 33.17 33.14
30.95 30.40 29.06 28.06 25.85 24.33 22.11 19.26 19.74 22.07 26.90 20.23 21.13 21.40 21.20 27.04 29.29 32.56 32.86 28.85 27.49 27.38 27.18 29.48 30.68 31.25 31.79 32.63 33.38 33.13 34.89 33.20 32.29 32.00 31.96 31.28 31.79 31.35 31.67 30.50 31.49 31.59 30.94
30.79 30.47 27.86 27.14 25.52 23.53 20.61 17.29 19.33 20.55 19.85 21.86 19.80 19.98 21.25 22.98 26.99 30.54 32.12 28.49 26.81 25.64 25.84 26.68 27.74 30.35 30.88 31.70 30.18 31.52 33.49 34.27 33.28 31.04 29.61 29.42 28.13 29.33 28.89 28.44 29.98 31.15 29.13
30.93 29.20 27.81 26.51 25.86 22.52 19.42 17.98 17.96 18.91 20.17 21.30 20.87 19.31 19.42 21.54 26.84 29.20 31.14 25.38 24.15 22.81 23.43 24.49 26.85 28.65 30.39 31.00 28.75 27.58 27.70 28.99 28.96 29.28 29.20 29.36 29.56 29.38 28.70 28.34 29.54 29.06 28.12
31.28 29.46 27.71 26.89 24.93 22.28 20.32 18.94 17.39 17.92 19.22 20.17 21.26 19.73 19.50 19.95 25.12 28.29 29.70 24.92 24.68 23.07 22.67 23.29 26.19 28.76 30.49 32.01 28.63 27.42 26.55 25.83 27.52 28.99 28.47 28.29 27.88 27.70 27.90 27.07 30.91 29.43 28.81
32.05 30.18 27.89 26.64 26.02 23.97 24.41 18.59 16.58 18.01 21.04 22.31 22.36 19.52 18.27 20.76 24.56 27.78 29.10 26.15 23.77 23.07 21.23 22.40 25.32 29.29 29.44 30.92 28.20 26.80 25.82 25.86 23.45 23.71 22.47 22.01 22.70 23.99 24.62 22.83 22.59 29.27 27.68
32.65 30.18 26.89 26.74 27.11 26.75 24.53 19.10 18.18 18.28 20.93 19.80 21.54 20.57 18.82 19.66 20.34 27.59 29.36 25.05 24.22 22.52 21.91 22.27 23.75 28.02 28.25 29.22 28.26 26.84 26.17 26.06 21.60 20.23 19.78 20.11 20.48 20.98 21.55 22.32 22.02 22.28 27.65
28.96 26.91 25.96 26.03 26.75 25.26 23.48 21.13 20.05 20.75 20.71 19.58 19.14 20.09 20.52 20.83 21.52 26.91 28.96 29.49 26.11 22.69 21.77 22.25 22.12 27.15 25.85 27.17 25.63 25.45 24.08 19.56 19.27 19.09 19.29 18.97 17.96 18.50 19.29 20.76 20.85 19.63 20.46
25.54 26.35 26.08 25.62 25.78 25.00 24.01 22.26 21.28 21.28 21.90 21.56 21.35 21.47 21.67 21.27 21.63 28.30 29.15 29.90 29.53 23.32 22.00 22.24 25.38 24.48 22.79 19.62 23.22 21.94 15.71 17.80 18.13 18.68 17.81 17.13 15.38 15.82 16.73 18.99 20.38 20.39 19.91
24.92 25.34 24.94 24.61 23.92 24.28 25.46 25.38 24.62 22.22 22.13 22.32 22.22 22.45 22.39 20.57 20.66 21.54 23.46 25.52 26.73 25.38 22.70 19.78 20.52 21.78 21.28 17.63 14.68 14.68 14.23 14.70 15.09 15.31 14.88 13.57 13.28 14.12 14.83 13.38 18.01 18.22 20.07
24.88 24.03 24.14 24.82 24.32 23.66 24.68 25.24 25.42 26.10 26.18 24.89 24.86 25.16 23.68 22.35 22.85 24.75 24.43 22.31 21.79 22.52 12.17 13.76 14.88 15.34 16.60 15.99 15.25 12.77 12.77 13.22 14.00 11.80 11.80 12.42 12.46 13.06 13.38 11.70 13.79 16.28 17.62
24.10 23.93 24.42 24.42 23.69 24.41 24.18 24.21 28.90 29.18 28.69 30.11 29.94 27.13 25.38 27.60 29.01 29.72 29.49 28.96 28.52 27.23 14.54 14.84 15.54 14.41 15.10 14.41 14.24 14.58 11.95 10.00 10.38 10.50 10.32 10.00 9.46 10.83 12.60 13.46 13.96 14.10 14.32
25.36 25.25 24.57 23.94 24.11 23.76 23.72 24.17 24.31 26.29 30.58 30.58 30.67 31.21 30.45 26.75 29.95 30.85 31.17 30.99 31.27 27.80 17.59 14.54 15.61 15.27 14.89 12.07 11.45 11.37 14.05 9.89 3.68 8.58 9.51 9.08 9.57 9.97 12.10 11.75 11.85 12.75 11.63
20.92 22.80 24.02 23.68 23.95 23.70 23.56 23.95 24.39 24.80 22.92 24.83 29.34 30.67 31.50 31.89 30.47 31.13 32.02 31.53 27.40 25.87 16.15 16.25 14.61 13.58 12.67 12.25 10.80 10.55 9.71 7.92 8.49 8.86 8.99 7.57 7.18 10.75 10.81 10.79 10.96 10.26 11.06
19.02 19.86 21.69 22.54 22.82 23.30 23.04 22.65 22.54 22.18 22.58 22.14 18.90 23.81 28.55 31.70 32.25 31.36 32.06 29.56 23.73 20.27 16.25 12.87 12.70 12.87 12.15 12.11 10.43 8.62 9.20 9.25 8.11 7.33 6.83 6.41 5.58 8.27 7.34 5.53 6.39 0.97 3.70
18.53 17.74 19.12 21.18 21.71 22.02 22.26 22.17 21.64 21.71 21.68 21.55 20.00 20.30 20.58 22.27 28.94 29.24 29.86 29.28 23.60 21.50 17.53 15.75 12.76 12.18 12.33 12.02 10.34 7.56 5.82 5.35 6.06 6.80 7.45 6.70 6.17 6.90 8.23 6.03 6.38 9.54 7.98
21.25 21.24 21.95 22.50 22.95 23.18 23.06 22.49 22.48 22.33 21.91 21.67 21.70 21.08 22.83 23.07 27.17 28.37 28.77 27.76 24.33 21.34 16.91 15.61 14.36 13.57 13.09 12.48 11.23 7.87 7.77 9.51 7.61 7.71 6.96 6.33 4.18 7.57 5.20 6.76 5.78 4.57 4.96
23.21 23.24 23.03 22.88 23.26 22.75 22.43 22.29 21.87 21.38 21.21 20.85 20.98 19.97 23.31 24.84 22.45 22.56 22.15 21.71 19.44 19.82 19.62 17.74 17.44 18.22 17.33 15.42 13.36 11.58 10.53 10.51 9.36 8.07 8.28 5.57 5.06 6.51 5.75 6.12 5.81 5.81 5.38
14.21 14.57 13.99 14.47 14.63 15.59 14.49 13.82 13.39 14.39 14.94 15.34 16.11 16.42 17.12 17.52 18.10 18.41 18.44 17.63 17.06 17.22 19.04 20.40 21.24 20.93 20.95 19.92 18.15 16.87 14.28 12.66 11.55 9.79 9.91 9.30 8.11 8.87 7.20 8.06 6.24 5.07 5.77
7.46 7.23 7.43 7.69 8.03 7.83 8.01 7.65 8.17 8.40 8.87 9.35 9.78 10.06 11.00 11.95 12.29 12.79 14.22 15.40 15.25 15.17 16.29 17.89 19.01 16.84 14.91 14.10 14.18 13.56 13.38 12.20 11.85 11.11 10.55 9.87 9.52 8.40 8.62 8.61 9.50 9.80 9.79
4.30 4.08 3.86 4.00 4.16 4.52 4.97 4.93 5.07 5.56 5.98 6.40 6.71 7.27 8.20 8.96 9.46 10.33 11.16 11.50 11.43 11.70 11.79 12.62 13.05 13.09 12.79 12.54 12.58 12.50 12.92 15.31 11.24 9.76 9.01 8.89 9.39 9.04 9.00 9.40 9.91 9.90 9.91
1.29 1.05 0.71 0.77 0.29 -0.00 0.41 0.88 1.27 1.78 2.08 2.98 3.68 4.44 5.20 5.70 6.41 7.20 8.15 8.83 8.99 8.92 9.17 9.69 10.22 10.78 11.29 11.78 13.22 14.12 14.58 15.81 14.51 12.22 10.54 10.41 9.41 8.67 8.75 9.47 8.83 9.28 9.72
MSLP
1013.57 1014.57 1015.38 1016.17 1016.70 1017.22 1017.86 1018.19 1018.85 1019.37 1019.90 1020.34 1020.36 1020.20 1020.08 1020.19 1020.13 1020.13 1020.05 1019.85 1019.76 1019.65 1019.53 1019.32 1019.14 1019.01 1018.81 1018.68 1018.50 1018.30 1018.02 1017.73 1016.86 1015.45 1015.24 1014.69 1014.11 1013.49 1012.61 1011.96 1011.36 1010.57 1009.66
1013.23 1014.16 1015.00 1015.83 1016.48 1017.10 1017.65 1018.16 1018.77 1019.07 1019.66 1020.02 1020.06 1019.92 1019.83 1020.08 1020.06 1019.96 1019.81 1019.68 1019.59 1019.45 1019.46 1019.32 1018.99 1018.65 1018.39 1018.21 1017.94 1017.70 1017.45 1017.16 1016.81 1015.62 1015.01 1014.51 1013.91 1013.09 1012.56 1011.94 1011.22 1010.37 1009.56
1012.97 1013.83 1014.78 1015.70 1016.21 1016.92 1017.42 1018.07 1018.63 1018.85 1019.58 1019.87 1019.91 1019.85 1019.68 1019.84 1019.85 1019.76 1019.57 1019.38 1019.32 1019.29 1019.22 1019.08 1018.80 1018.48 1018.13 1017.93 1017.68 1017.36 1016.98 1016.66 1016.34 1015.82 1014.76 1014.32 1013.61 1012.98 1012.26 1011.85 1011.26 1010.35 1009.75
1012.71 1013.53 1014.40 1015.17 1015.79 1016.61 1017.24 1018.03 1018.56 1018.81 1019.42 1019.64 1019.87 1019.87 1019.63 1019.63 1019.60 1019.44 1019.29 1019.20 1019.07 1019.03 1019.11 1018.94 1018.69 1018.34 1018.01 1017.77 1017.47 1017.06 1016.64 1016.30 1015.91 1015.47 1014.78 1014.09 1013.61 1012.86 1012.58 1011.92 1010.92 1010.63 1010.09
1012.25 1013.12 1013.89 1014.66 1015.55 1016.42 1017.14 1017.96 1018.43 1018.66 1019.12 1019.24 1019.67 1019.74 1019.63 1019.37 1019.41 1019.24 1018.98 1019.00 1019.00 1018.94 1018.87 1018.75 1018.47 1018.27 1017.95 1017.61 1017.23 1016.67 1016.19 1015.85 1015.48 1015.09 1014.55 1013.99 1013.38 1012.85 1012.64 1012.30 1011.76 1011.06 1010.57
1011.73 1012.59 1013.36 1014.32 1015.30 1016.11 1016.94 1017.72 1018.23 1018.43 1018.83 1019.04 1019.25 1019.50 1019.43 1019.14 1018.95 1018.88 1018.70 1018.77 1018.99 1018.92 1018.91 1018.54 1018.35 1018.00 1017.69 1017.34 1016.93 1016.45 1015.86 1015.31 1014.99 1014.73 1014.36 1013.94 1013.46 1013.42 1013.07 1012.71 1012.04 1011.44 1011.12
1011.13 1011.98 1012.81 1013.73 1014.73 1015.61 1016.53 1017.48 1017.92 1018.14 1018.53 1018.80 1018.91 1019.13 1019.24 1018.93 1018.63 1018.55 1018.54 1018.73 1018.92 1018.98 1018.89 1018.61 1018.25 1017.80 1017.42 1016.93 1016.65 1016.24 1015.77 1015.37 1015.13 1014.87 1014.46 1014.17 1013.85 1013.68 1013.48 1012.82 1012.33 1011.94 1011.92
1010.32 1011.20 1012.14 1013.16 1014.11 1015.08 1016.11 1016.86 1017.46 1017.74 1017.97 1018.22 1018.49 1018.46 1018.71 1018.80 1018.66 1018.34 1018.31 1018.43 1018.69 1018.87 1018.83 1018.63 1018.21 1017.72 1017.31 1016.77 1016.60 1016.20 1016.06 1015.76 1015.48 1015.11 1014.82 1014.42 1014.08 1013.80 1013.60 1013.10 1012.33 1012.00 1012.03
1009.32 1010.27 1011.32 1012.34 1013.28 1014.31 1015.26 1015.98 1016.74 1017.16 1017.42 1017.56 1017.72 1018.02 1018.19 1018.20 1018.32 1018.26 1018.09 1018.23 1018.40 1018.57 1018.53 1018.44 1018.11 1017.70 1017.24 1016.87 1016.72 1016.50 1016.20 1015.95 1015.71 1015.31 1014.91 1014.59 1014.42 1014.03 1013.56 1012.81 1012.25 1012.02 1011.98
1008.05 1009.03 1010.06 1011.10 1012.09 1013.10 1013.99 1014.88 1015.74 1016.19 1016.31 1016.79 1017.17 1017.40 1017.56 1017.63 1017.72 1017.77 1017.76 1018.02 1018.22 1018.38 1018.39 1018.22 1017.85 1017.47 1017.18 1016.83 1016.73 1016.56 1016.25 1016.05 1015.88 1015.60 1015.29 1015.01 1014.83 1014.37 1013.85 1013.69 1013.14 1012.41 1012.23
1007.30 1008.10 1009.23 1010.16 1011.02 1012.02 1013.09 1014.09 1014.78 1015.43 1015.81 1016.14 1016.46 1016.72 1016.98 1017.11 1017.26 1017.27 1017.17 1017.33 1017.58 1017.87 1018.02 1017.98 1017.73 1017.32 1017.08 1016.84 1016.72 1016.62 1016.37 1016.06 1016.08 1016.03 1015.76 1015.42 1015.03 1014.68 1014.30 1013.89 1013.72 1013.09 1012.55
1006.89 1007.52 1008.63 1009.61 1010.45 1011.59 1012.55 1013.42 1014.11 1014.64 1015.10 1015.52 1015.95 1016.20 1016.28 1016.39 1016.62 1016.78 1016.72 1016.66 1016.92 1017.29 1017.44 1017.65 1017.65 1017.33 1017.23 1017.06 1016.97 1016.71 1016.46 1016.31 1016.32 1016.16 1015.98 1015.63 1015.40 1015.09 1014.80 1014.41 1014.07 1013.97 1013.63
1006.85 1007.57 1008.35 1009.12 1009.90 1010.72 1011.72 1012.68 1013.40 1013.78 1014.18 1014.60 1015.00 1015.30 1015.36 1015.51 1015.84 1015.97 1016.12 1016.18 1016.27 1016.67 1017.00 1017.26 1017.37 1017.39 1017.35 1017.33 1017.11 1016.93 1016.83 1016.62 1016.56 1016.51 1016.47 1016.29 1016.01 1015.84 1015.26 1014.98 1014.61 1014.40 1014.30
1006.90 1007.49 1008.38 1008.57 1009.46 1010.12 1010.81 1011.44 1011.98 1012.54 1013.07 1013.48 1013.85 1014.03 1014.31 1014.63 1015.08 1015.38 1015.46 1015.60 1015.80 1016.13 1016.57 1016.95 1017.21 1017.35 1017.34 1017.39 1017.29 1017.23 1017.23 1017.25 1017.26 1017.28 1017.05 1016.74 1016.39 1016.09 1015.86 1015.75 1015.24 1015.00 1014.59
1006.74 1007.66 1008.13 1008.35 1008.95 1009.67 1010.16 1010.38 1010.61 1010.85 1011.22 1011.71 1012.03 1012.45 1013.16 1013.52 1013.51 1013.80 1014.27 1014.95 1015.23 1015.65 1016.47 1016.93 1017.21 1017.29 1017.35 1017.42 1017.48 1017.59 1017.54 1017.44 1017.54 1017.73 1017.47 1017.21 1016.78 1016.50 1016.29 1016.23 1015.96 1015.63 1015.61
1007.35 1007.71 1007.73 1008.11 1008.62 1009.23 1009.76 1010.16 1010.17 1010.38 1010.74 1010.94 1011.20 1011.49 1011.85 1011.91 1012.20 1012.64 1013.13 1013.74 1014.45 1015.14 1016.06 1016.34 1016.56 1016.69 1016.90 1017.08 1017.32 1017.53 1017.68 1017.77 1017.96 1017.95 1017.80 1017.59 1017.44 1017.14 1016.78 1016.50 1016.31 1016.47 1016.64
1007.33 1007.34 1007.64 1008.07 1008.46 1008.92 1009.42 1009.70 1009.84 1009.88 1010.17 1010.42 1010.58 1010.75 1011.02 1011.30 1011.66 1011.85 1012.16 1012.72 1013.41 1014.56 1015.17 1015.64 1015.93 1016.03 1016.25 1016.58 1016.93 1017.25 1017.53 1017.75 1017.90 1017.80 1017.68 1017.52 1017.43 1017.35 1017.13 1016.96 1016.82 1016.77 1017.04
1007.37 1007.55 1007.77 1008.00 1008.35 1008.73 1009.04 1009.25 1009.42 1009.66 1009.82 1009.82 1009.88 1010.08 1010.29 1010.61 1010.98 1011.21 1011.60 1012.21 1012.95 1013.56 1014.35 1014.84 1015.32 1015.47 1015.92 1016.07 1016.40 1016.81 1017.22 1017.61 1017.64 1017.65 1017.71 1017.85 1017.79 1017.69 1017.64 1017.58 1017.47 1017.39 1017.42
1007.78 1007.77 1007.84 1007.98 1008.18 1008.40 1008.72 1009.02 1009.26 1009.48 1009.68 1009.85 1010.17 1010.04 1009.95 1010.05 1010.30 1010.69 1011.11 1011.27 1012.15 1012.91 1013.60 1014.21 1014.63 1014.97 1015.36 1015.68 1016.07 1016.57 1016.95 1017.18 1017.38 1017.62 1017.79 1017.84 1017.96 1017.82 1017.86 1017.88 1017.92 1017.95 1017.99
1007.92 1007.82 1007.85 1008.01 1008.28 1008.59 1008.82 1009.08 1009.27 1009.48 1009.66 1009.91 1010.14 1010.15 1010.14 1010.16 1009.84 1010.02 1010.39 1010.80 1011.55 1012.10 1012.78 1013.52 1014.12 1014.51 1014.91 1015.22 1015.78 1016.34 1016.91 1017.13 1017.23 1017.39 1017.52 1017.68 1017.84 1017.84 1017.66 1017.71 1017.75 1017.83 1017.95
1007.92 1007.86 1007.95 1008.10 1008.27 1008.52 1008.76 1009.02 1009.25 1009.46 1009.64 1009.85 1009.94 1009.92 1009.89 1010.01 1009.71 1009.74 1010.02 1010.41 1011.05 1011.65 1012.30 1012.95 1013.47 1013.95 1014.46 1014.81 1015.28 1015.92 1016.26 1016.41 1016.73 1016.99 1017.32 1017.46 1017.68 1017.63 1017.75 1017.78 1017.86 1017.93 1018.06
1008.35 1008.47 1008.60 1008.66 1008.76 1008.93 1009.17 1009.37 1009.52 1009.77 1009.89 1009.96 1010.02 1009.99 1009.75 1009.77 1009.93 1010.00 1010.13 1010.45 1010.81 1011.18 1011.53 1012.04 1012.69 1013.23 1013.62 1014.05 1014.56 1015.20 1015.66 1015.98 1016.30 1016.68 1017.01 1017.24 1017.42 1017.51 1017.67 1017.71 1017.83 1018.02 1018.16
1009.55 1009.78 1009.96 1010.09 1010.14 1010.26 1010.57 1010.83 1010.93 1010.83 1010.81 1010.90 1010.80 1010.58 1010.52 1010.44 1010.23 1010.31 1010.52 1010.70 1010.87 1011.06 1011.29 1011.73 1012.25 1012.74 1013.08 1013.54 1014.05 1014.44 1014.93 1015.32 1015.58 1016.10 1016.57 1016.84 1016.99 1017.12 1017.39 1017.47 1017.67 1017.92 1018.13
1011.40 1011.46 1011.57 1011.79 1011.97 1012.19 1012.34 1012.47 1012.35 1012.24 1012.40 1012.40 1012.25 1012.09 1012.02 1011.79 1011.58 1011.54 1011.47 1011.44 1011.48 1011.63 1011.74 1011.98 1012.25 1012.73 1013.29 1013.88 1014.24 1014.52 1014.74 1015.08 1015.41 1015.78 1016.12 1016.43 1016.69 1016.91 1017.12 1017.25 1017.34 1017.54 1017.70
1012.85 1012.98 1013.32 1013.63 1013.60 1013.79 1013.89 1013.89 1013.95 1014.14 1013.98 1013.95 1013.80 1013.61 1013.33 1013.11 1012.92 1012.85 1012.80 1012.74 1012.73 1012.75 1012.90 1012.99 1013.25 1013.63 1013.94 1014.30 1014.55 1014.76 1014.95 1015.08 1015.49 1015.80 1016.12 1016.32 1016.49 1016.68 1016.84 1016.95 1017.06 1017.25 1017.44
1014.64 1014.84 1015.04 1015.23 1015.44 1015.53 1015.57 1015.68 1015.78 1015.68 1015.75 1015.57 1015.27 1014.98 1014.75 1014.57 1014.48 1014.33 1014.20 1014.09 1014.03 1014.05 1014.15 1014.31 1014.51 1014.62 1014.75 1014.88 1014.90 1014.92 1014.99 1015.04 1015.25 1015.52 1015.81 1016.04 1016.32 1016.54 1016.66 1016.67 1016.78 1016.87 1017.05
Wind_Speed
12 10 10 8 8 8 6 6 5 5 4 3 3 3 3 3 2 3 3 3 4 5 6 6 7 8 5 5 5 6 6 6 10 10 9 9 11 10 12 11 10 11 10
11 10 9 8 8 8 7 7 7 6 4 3 3 3 3 2 2 2 3 4 5 6 7 7 7 5 6 6 5 7 7 8 8 14 11 8 11 10 11 12 10 9 9
11 11 9 9 9 8 7 6 5 5 4 3 3 3 3 0 1 2 4 4 4 5 5 6 7 7 6 5 6 7 6 6 7 8 10 10 8 8 10 8 10 10 5
11 11 11 10 10 8 6 6 5 5 5 4 3 2 3 1 2 2 3 3 2 3 5 6 6 7 7 8 7 7 7 6 7 7 8 10 8 7 5 10 11 8 6
12 11 11 9 8 7 7 6 5 6 5 4 3 2 2 1 2 2 1 3 4 4 3 5 5 7 11 10 7 8 7 6 5 6 7 8 9 8 9 8 8 9 3
12 12 9 10 9 8 7 7 6 6 5 4 4 4 4 2 4 4 2 2 3 3 4 4 6 6 9 13 15 16 13 7 6 5 6 7 9 8 6 8 7 7 5
12 10 11 10 10 10 8 7 7 7 5 6 5 4 5 4 5 3 3 1 2 3 3 5 5 5 8 7 12 14 8 9 8 4 6 6 8 7 8 9 7 4 2
13 12 11 11 11 9 9 8 5 5 6 5 5 5 4 4 7 5 3 2 1 2 3 3 5 7 8 7 8 8 8 5 7 5 6 7 7 8 8 8 8 1 1
14 13 13 13 12 11 11 10 6 5 5 5 4 6 5 5 7 6 3 1 0 2 2 3 4 6 10 11 6 8 7 5 8 10 9 9 11 11 11 6 1 1 1
16 15 14 14 13 13 12 10 5 4 5 5 6 5 5 5 6 7 4 2 1 2 2 2 5 6 8 9 4 6 6 7 6 7 6 6 9 8 12 7 4 2 1
12 12 12 13 13 12 10 6 7 7 5 5 6 5 6 6 6 10 8 4 3 2 2 2 2 7 5 6 5 4 5 6 6 3 3 4 5 6 7 7 7 4 1
10 11 11 12 10 8 10 8 6 7 7 6 5 4 5 6 10 11 11 9 7 3 3 2 3 4 4 5 4 6 6 4 2 3 3 4 4 5 5 5 6 6 6
9 9 10 10 10 10 11 9 7 8 7 7 6 5 5 4 5 15 13 12 10 4 2 4 3 1 2 1 5 6 5 2 2 2 3 3 2 4 5 3 3 2 7
8 8 8 10 10 9 8 8 8 8 8 7 7 7 6 4 5 5 5 5 8 5 5 2 3 2 1 2 1 4 3 3 2 2 2 3 3 3 3 3 2 3 3
5 6 7 6 9 8 8 8 9 9 11 9 9 8 7 6 8 12 11 7 5 6 4 1 2 2 2 1 1 1 2 3 3 2 3 4 4 3 3 3 2 3 4
4 4 5 5 5 5 6 5 14 13 15 18 12 10 6 8 10 17 19 17 15 13 2 3 3 4 4 3 2 1 0 1 2 1 2 2 3 3 3 3 4 5 6
1 3 3 3 4 5 5 5 6 7 18 17 19 19 17 9 17 15 18 19 17 14 3 3 4 4 3 4 3 2 3 2 2 1 1 1 1 1 1 2 3 2 3
3 1 2 3 4 4 5 5 4 5 5 5 14 15 19 18 15 18 19 16 6 8 4 5 5 4 4 4 4 4 3 3 2 1 1 1 1 1 1 1 1 1 1
2 1 2 2 3 3 3 3 3 3 3 2 1 4 9 16 18 17 21 8 8 7 6 4 4 4 4 4 4 3 3 3 2 2 2 2 2 1 1 1 2 2 1
1 1 2 2 2 2 3 3 3 3 3 3 3 4 1 2 8 9 9 9 7 6 5 5 4 4 4 4 4 4 4 3 3 3 2 2 2 1 2 3 2 2 1
2 2 2 2 2 2 2 2 2 2 2 2 3 3 7 4 6 7 7 6 6 5 5 5 5 5 5 5 4 5 4 4 3 3 3 3 3 3 2 2 2 1 3
4 5 5 5 4 4 4 3 3 2 1 1 1 2 5 3 4 2 2 3 5 4 5 6 5 6 6 6 6 5 4 4 3 3 3 3 3 2 3 2 2 2 2
8 8 8 8 7 9 8 8 7 6 7 7 6 5 5 3 2 1 2 1 2 3 3 4 5 5 4 4 4 5 5 4 4 4 4 4 4 3 3 3 3 2 3
8 9 9 8 8 8 8 8 7 10 8 7 7 7 7 7 7 8 6 5 5 5 5 4 4 6 5 4 3 3 3 3 3 3 4 3 3 4 3 2 3 4 3
9 10 9 8 8 8 8 8 8 8 8 8 7 7 7 8 8 8 8 7 7 7 8 7 6 7 7 6 4 3 2 3 4 4 3 3 3 4 3 3 3 3 3
10 10 9 8 8 8 8 7 8 8 8 7 7 7 8 8 8 7 7 7 7 7 7 6 7 8 7 5 4 3 2 1 4 5 3 3 2 2 2 3 4 3 4
Wind_Direction
161 160 156 162 159 153 164 155 161 154 165 185 203 114 59 18 6 328 321 321 322 311 305 298 297 297 280 273 268 267 268 272 282 297 302 304 302 292 302 305 306 310 302
161 158 160 156 156 161 167 168 170 156 161 172 195 131 93 34 347 336 338 343 324 340 335 319 306 300 283 278 273 273 270 276 280 295 308 307 302 303 297 300 316 310 307
155 157 156 167 166 174 168 164 163 141 169 182 202 153 109 9 312 325 334 322 337 338 306 306 310 322 317 311 295 286 277 278 274 280 295 305 300 306 315 318 322 316 334
161 164 169 176 175 175 163 163 167 155 170 168 210 173 118 260 245 264 299 293 324 322 319 316 315 316 314 312 297 285 278 276 274 276 287 303 304 312 303 326 333 337 347
166 171 182 169 160 156 161 170 176 168 181 162 191 205 213 189 238 270 290 348 323 318 329 305 296 307 307 313 308 301 287 272 268 278 289 297 314 326 335 330 316 323 356
174 183 166 161 161 172 168 174 176 175 181 179 188 218 226 216 242 286 353 355 330 314 318 323 319 311 322 324 328 314 302 279 273 272 287 298 311 326 326 324 320 331 346
180 178 169 166 173 180 168 168 187 184 175 202 202 204 241 237 233 243 333 3 312 311 313 329 324 321 320 324 340 334 352 15 14 336 308 316 319 345 323 317 320 312 322
185 179 171 172 180 170 167 186 182 175 189 189 212 203 214 259 249 228 244 128 208 293 303 312 313 326 328 341 347 348 345 358 348 341 318 311 311 324 310 289 287 274 217
189 183 176 177 177 173 185 189 181 180 184 189 197 195 201 229 243 246 245 169 261 305 308 305 309 317 328 352 349 340 341 345 343 353 356 350 346 349 350 310 285 276 353
189 183 179 177 178 184 189 182 168 184 193 182 201 203 203 223 222 225 213 189 271 284 300 298 306 328 340 351 5 339 336 344 342 348 3 10 7 6 21 16 331 296 141
181 170 172 178 181 186 179 160 170 182 174 192 204 193 204 208 226 225 219 181 206 229 253 269 282 308 346 352 359 331 330 340 345 355 3 13 17 18 19 20 9 358 45
161 165 170 171 175 170 173 173 167 172 184 192 200 228 217 208 216 227 223 218 202 202 236 227 271 317 360 0 9 11 10 23 19 25 11 18 10 8 1 12 35 39 33
157 167 170 169 176 170 172 177 178 183 189 198 200 212 227 198 208 222 220 222 224 198 202 233 270 358 39 38 26 30 23 27 29 42 22 356 342 321 330 348 13 58 56
156 162 176 172 173 176 184 185 187 187 194 199 202 211 216 195 208 207 213 219 229 209 202 200 216 195 63 93 21 29 30 28 33 18 355 323 324 349 349 348 332 351 61
132 156 173 169 176 181 200 194 199 206 199 197 209 203 190 213 218 204 194 193 194 201 137 162 195 202 217 218 197 22 32 43 51 17 10 352 8 3 13 353 9 19 48
155 167 167 163 168 177 190 214 229 226 216 224 217 198 210 214 194 202 206 201 196 174 135 187 203 201 209 196 190 192 90 58 55 23 32 28 27 25 32 36 61 69 84
168 149 144 157 167 178 190 203 223 227 234 231 232 230 223 213 213 205 198 193 190 174 195 202 216 195 196 186 182 182 175 179 174 165 140 118 134 78 89 88 104 112 107
20 312 192 178 180 178 191 202 202 208 208 223 238 231 234 227 215 209 194 183 191 181 191 201 215 198 197 189 181 180 186 181 192 190 148 78 37 57 101 53 24 92 86
0 307 254 210 185 179 176 187 201 202 220 230 298 276 243 227 220 215 203 197 195 203 201 208 200 190 195 191 184 177 179 180 166 163 171 171 151 166 128 127 119 72 98
17 253 197 170 167 178 177 188 191 211 216 229 230 239 252 226 214 210 205 205 202 206 185 196 191 190 192 183 175 171 177 181 179 186 182 182 169 208 170 166 181 160 146
20 71 121 128 133 149 154 179 190 192 209 224 246 234 229 217 228 218 212 204 204 198 184 184 177 178 187 184 174 183 195 187 187 181 183 186 171 183 184 176 162 155 143
47 56 54 56 66 69 63 57 60 56 27 358 347 330 302 226 218 238 208 194 200 187 180 170 172 183 182 179 179 184 190 194 181 183 193 189 191 182 169 163 170 168 163
47 51 47 44 43 47 49 41 38 37 38 31 25 24 18 11 350 239 242 251 207 186 156 156 166 169 161 156 171 178 183 199 195 175 186 191 191 190 184 183 175 174 186
55 57 58 53 50 53 52 48 45 44 42 39 35 33 31 33 36 36 38 43 56 54 51 64 84 111 113 109 113 113 120 125 138 163 172 179 192 190 189 190 190 196 181
54 57 56 54 54 52 53 49 47 43 43 40 39 37 37 39 41 40 40 43 47 53 52 54 62 77 83 90 91 99 129 133 147 152 152 159 183 188 196 206 194 189 176
58 59 57 54 54 50 52 52 47 43 41 37 37 37 36 38 37 37 36 41 47 50 50 49 54 60 64 56 39 61 5 243 195 173 157 158 165 179 192 207 200 191 186